This is the latest recevied weather packets stored in our database for station/object KI4BIY. If no packets are shown the sender has not sent any weather packets the latest 1 day(s).
| Time | Temp. | Humidity | Pressure | Rain* | Wind** | Luminosity | Snow |
|---|---|---|---|---|---|---|---|
| 1778039235 | 19.44° C | 99% | 1006.5 hPa | 0 mm | - | 0 W/m² | - |
| 1778038932 | 19.44° C | 99% | 1006.6 hPa | 0 mm | - | 0 W/m² | - |
| 1778038023 | 18.89° C | 99% | 1006.4 hPa | 0 mm | - | 0 W/m² | - |
| 1778037417 | 19.44° C | 99% | 1006.3 hPa | 0 mm | - | 0 W/m² | - |
| 1778037114 | 19.44° C | 99% | 1006.4 hPa | 0 mm | - | 0 W/m² | - |
| 1778036813 | 19.44° C | 99% | 1006.6 hPa | 1.27 mm | - | 0 W/m² | - |
| 1778036206 | 19.44° C | 99% | 1006.6 hPa | 3.05 mm | - | 0 W/m² | - |
| 1778035902 | 19.44° C | 99% | 1007 hPa | 6.6 mm | - | 0 W/m² | - |
| 1778035600 | 19.44° C | 99% | 1007 hPa | 7.87 mm | - | 0 W/m² | - |
| 1778035296 | 19.44° C | 99% | 1007.4 hPa | 1.78 mm | - | 0 W/m² | - |
| 1778034992 | 19.44° C | 99% | 1007 hPa | 0 mm | - | 0 W/m² | - |
| 1778034690 | 19.44° C | 99% | 1006.7 hPa | 0 mm | - | 0 W/m² | - |
| 1778034387 | 19.44° C | 99% | 1006.5 hPa | 0 mm | - | 0 W/m² | - |
| 1778034084 | 19.44° C | 99% | 1006.6 hPa | 0 mm | - | 0 W/m² | - |
| 1778033782 | 19.44° C | 99% | 1006.6 hPa | 0 mm | - | 0 W/m² | - |
| 1778033176 | 19.44° C | 99% | 1006.7 hPa | 0 mm | - | 0 W/m² | - |
| 1778032571 | 19.44° C | 99% | 1006.3 hPa | 0 mm | - | 0 W/m² | - |
| 1778032268 | 19.44° C | 99% | 1006.3 hPa | 0 mm | - | 0 W/m² | - |
| 1778031966 | 19.44° C | 99% | 1006.4 hPa | 0 mm | - | 0 W/m² | - |
| 1778031661 | 19.44° C | 99% | 1006.1 hPa | 0 mm | - | 0 W/m² | - |
| 1778031359 | 19.44° C | 99% | 1006.2 hPa | 0 mm | - | 0 W/m² | - |
| 1778031056 | 19.44° C | 99% | 1006.4 hPa | 0 mm | - | 0 W/m² | - |
| 1778030752 | 19.44° C | 99% | 1006.2 hPa | 0 mm | - | 0 W/m² | - |
| 1778030448 | 19.44° C | 99% | 1006.1 hPa | 0 mm | - | 0 W/m² | - |
| 1778030147 | 19.44° C | 99% | 1005.9 hPa | 0 mm | - | 0 W/m² | - |
* Rain latest hour (hover to see other rain measurements)
** Current wind speed in m/s (hover to see current wind gust speed)